Wetterdaten: aktuell Freitag, 22.03.2019 09:30
Datum Zeit Temp. I. Temp. 2m Temp. 5cm Temp. Gr 2m LF I. Luftf.2m LG Graben Luftdruck Regen Wind Richtung Richtung Taupunkt Windchill Windben
22.03.2019 09:30 25,1 C 12,7 C 17,0 C 11,5 C 31 % 54 % 63 % 1032,9 hPa 0,0 l/m 4,8 km/h (1 Bft) S-SW 202 3,6 C 12,7 C 17,6 km/h (3 Bft)
22.03.2019 09:28 25,1 C 12,5 C 17,5 C 11,5 C 31 % 55 % 63 % 1032,9 hPa 0,0 l/m 3,1 km/h (1 Bft) S 180 3,7 C 12,5 C 11,6 km/h (2 Bft)
22.03.2019 09:26 25,1 C 12,5 C 17,3 C 11,3 C 31 % 55 % 64 % 1032,9 hPa 0,0 l/m 2,6 km/h (1 Bft) S-SO 157 3,7 C 12,5 C 7,0 km/h (2 Bft)
22.03.2019 09:24 25,1 C 12,5 C 17,1 C 11,2 C 31 % 55 % 64 % 1032,9 hPa 0,0 l/m 2,7 km/h (1 Bft) O-SO 112 3,7 C 12,5 C 9,7 km/h (2 Bft)
22.03.2019 09:22 25,0 C 12,3 C 16,7 C 10,9 C 31 % 55 % 65 % 1032,9 hPa 0,0 l/m 2,7 km/h (1 Bft) NW 315 3,5 C 12,3 C 3,1 km/h (1 Bft)
22.03.2019 09:20 25,0 C 12,3 C 16,6 C 9,9 C 31 % 56 % 68 % 1032,9 hPa 0,0 l/m 2,6 km/h (1 Bft) S-SW 202 3,8 C 12,3 C 2,7 km/h (1 Bft)
22.03.2019 09:18 25,0 C 12,2 C 16,5 C 9,9 C 31 % 55 % 68 % 1032,9 hPa 0,0 l/m 2,6 km/h (1 Bft) S-SW 202 3,4 C 12,2 C 4,8 km/h (1 Bft)
22.03.2019 09:16 25,0 C 12,1 C 16,6 C 9,5 C 31 % 56 % 70 % 1032,9 hPa 0,0 l/m 2,6 km/h (1 Bft) W-SW 247 3,6 C 12,1 C 5,6 km/h (1 Bft)
22.03.2019 09:14 25,0 C 12,1 C 16,2 C 9,5 C 31 % 56 % 70 % 1032,9 hPa 0,0 l/m 2,3 km/h (1 Bft) NO 45 3,6 C 12,1 C 9,7 km/h (2 Bft)
22.03.2019 09:12 25,0 C 12,1 C 16,1 C 9,2 C 31 % 56 % 71 % 1032,9 hPa 0,0 l/m 1,9 km/h (1 Bft) N 360 3,6 C 12,1 C 5,8 km/h (2 Bft)
22.03.2019 09:10 25,0 C 12,0 C 16,1 C 8,9 C 31 % 57 % 71 % 1032,9 hPa 0,0 l/m 2,4 km/h (1 Bft) W-SW 247 3,8 C 12,0 C 3,6 km/h (1 Bft)
22.03.2019 09:08 25,0 C 11,3 C 12,6 C 7,0 C 31 % 57 % 77 % 1032,9 hPa 0,0 l/m 2,4 km/h (1 Bft) W-SW 247 3,1 C 11,3 C 3,6 km/h (1 Bft)
22.03.2019 09:06 24,9 C 11,3 C 12,6 C 7,0 C 31 % 57 % 77 % 1032,9 hPa 0,0 l/m 2,4 km/h (1 Bft) W-SW 247 3,1 C 11,3 C 3,6 km/h (1 Bft)
22.03.2019 09:04 24,9 C 11,3 C 12,6 C 7,0 C 31 % 57 % 77 % 1032,9 hPa 0,0 l/m 2,4 km/h (1 Bft) W-SW 247 3,1 C 11,3 C 3,6 km/h (1 Bft)
22.03.2019 09:02 24,9 C 11,3 C 12,6 C 7,0 C 31 % 57 % 77 % 1032,9 hPa 0,0 l/m 2,4 km/h (1 Bft) W-SW 247 3,1 C 11,3 C 3,6 km/h (1 Bft)
22.03.2019 09:00 24,9 C 11,3 C 12,6 C 7,0 C 31 % 57 % 77 % 1032,9 hPa 0,0 l/m 2,4 km/h (1 Bft) N-NO 22 3,1 C 11,3 C 6,3 km/h (2 Bft)
22.03.2019 08:58 24,9 C 11,2 C 12,8 C 6,8 C 31 % 58 % 78 % 1032,9 hPa 0,0 l/m 2,3 km/h (1 Bft) O-NO 67 3,2 C 11,2 C 3,6 km/h (1 Bft)
22.03.2019 08:56 24,8 C 11,1 C 12,3 C 6,6 C 31 % 59 % 78 % 1032,9 hPa 0,0 l/m 2,3 km/h (1 Bft) W-NW 292 3,4 C 11,1 C 6,8 km/h (2 Bft)
22.03.2019 08:54 24,8 C 11,0 C 11,8 C 6,0 C 31 % 59 % 79 % 1032,9 hPa 0,0 l/m 2,4 km/h (1 Bft) N-NW 337 3,3 C 11,0 C 6,8 km/h (2 Bft)
22.03.2019 08:52 24,8 C 10,8 C 11,8 C 6,0 C 31 % 60 % 79 % 1032,9 hPa 0,0 l/m 2,4 km/h (1 Bft) N-NW 337 3,4 C 10,8 C 12,1 km/h (2 Bft)
22.03.2019 08:50 24,8 C 10,8 C 12,0 C 5,4 C 31 % 60 % 83 % 1032,9 hPa 0,0 l/m 3,1 km/h (1 Bft) W 270 3,4 C 10,8 C 8,9 km/h (2 Bft)
22.03.2019 08:48 24,8 C 10,6 C 12,4 C 5,4 C 31 % 61 % 83 % 1032,9 hPa 0,0 l/m 3,2 km/h (1 Bft) S-SO 157 3,4 C 10,6 C 0,0 km/h (0 Bft)
22.03.2019 08:46 24,8 C 10,5 C 13,0 C 5,0 C 31 % 62 % 84 % 1032,9 hPa 0,0 l/m 2,9 km/h (1 Bft) NW 315 3,5 C 10,5 C 3,1 km/h (1 Bft)
22.03.2019 08:44 24,8 C 10,5 C 12,4 C 4,6 C 31 % 62 % 85 % 1032,9 hPa 0,0 l/m 3,2 km/h (1 Bft) W-SW 247 3,5 C 10,5 C 4,6 km/h (1 Bft)
22.03.2019 08:42 24,8 C 10,4 C 12,1 C 4,4 C 31 % 62 % 85 % 1032,9 hPa 0,0 l/m 2,6 km/h (1 Bft) NW 315 3,4 C 10,4 C 11,3 km/h (2 Bft)
22.03.2019 08:40 24,8 C 10,3 C 10,8 C 4,0 C 31 % 64 % 85 % 1033,0 hPa 0,0 l/m 1,6 km/h (1 Bft) W 270 3,8 C 10,3 C 8,0 km/h (2 Bft)
22.03.2019 08:38 24,8 C 10,3 C 10,8 C 3,8 C 31 % 64 % 86 % 1033,0 hPa 0,0 l/m 1,1 km/h (1 Bft) O-SO 112 3,8 C 10,3 C 0,0 km/h (0 Bft)
22.03.2019 08:36 24,8 C 10,2 C 9,9 C 3,4 C 31 % 64 % 86 % 1033,0 hPa 0,0 l/m 1,3 km/h (1 Bft) O-NO 67 3,7 C 10,2 C 0,0 km/h (0 Bft)
22.03.2019 08:34 24,8 C 10,1 C 9,7 C 3,1 C 31 % 64 % 86 % 1033,0 hPa 0,0 l/m 0,8 km/h (0 Bft) W-NW 292 3,6 C 10,1 C 6,5 km/h (2 Bft)
22.03.2019 08:32 24,7 C 10,1 C 9,8 C 2,5 C 31 % 64 % 87 % 1033,0 hPa 0,0 l/m 0,5 km/h (0 Bft) N-NW 337 3,6 C 10,1 C 0,0 km/h (0 Bft)
22.03.2019 08:30 24,7 C 9,9 C 9,2 C 2,1 C 31 % 65 % 87 % 1033,0 hPa 0,0 l/m 0,6 km/h (0 Bft) O 90 3,6 C 9,9 C 0,0 km/h (0 Bft)
22.03.2019 08:28 24,7 C 9,7 C 8,5 C 1,5 C 31 % 65 % 87 % 1033,0 hPa 0,0 l/m 0,6 km/h (0 Bft) S 180 3,4 C 9,7 C 2,7 km/h (1 Bft)
22.03.2019 08:26 24,7 C 9,6 C 8,3 C 1,5 C 31 % 65 % 87 % 1033,0 hPa 0,0 l/m 0,5 km/h (0 Bft) N 360 3,4 C 9,6 C 2,9 km/h (1 Bft)
22.03.2019 08:24 24,7 C 9,5 C 8,0 C 1,2 C 31 % 65 % 87 % 1033,0 hPa 0,0 l/m 0,3 km/h (0 Bft) W-NW 292 3,3 C 9,5 C 2,9 km/h (1 Bft)
22.03.2019 08:22 24,7 C 9,3 C 7,9 C 1,1 C 31 % 65 % 87 % 1033,0 hPa 0,0 l/m 0,3 km/h (0 Bft) O 90 3,1 C 9,3 C 0,0 km/h (0 Bft)
22.03.2019 08:20 24,7 C 9,1 C 7,7 C 0,8 C 31 % 65 % 87 % 1033,0 hPa 0,0 l/m 0,2 km/h (0 Bft) W 270 2,9 C 9,1 C 2,7 km/h (1 Bft)
22.03.2019 08:18 24,7 C 8,8 C 7,0 C 0,7 C 31 % 66 % 87 % 1033,0 hPa 0,0 l/m 0,5 km/h (0 Bft) S 180 2,8 C 8,8 C 0,0 km/h (0 Bft)
22.03.2019 08:16 24,7 C 8,6 C 7,0 C 0,6 C 31 % 66 % 87 % 1033,0 hPa 0,0 l/m 1,0 km/h (0 Bft) N-NO 22 2,6 C 8,6 C 0,0 km/h (0 Bft)
22.03.2019 08:14 24,7 C 8,3 C 6,6 C 0,5 C 30 % 66 % 87 % 1033,0 hPa 0,0 l/m 1,4 km/h (1 Bft) O-NO 67 2,3 C 8,3 C 0,0 km/h (0 Bft)
22.03.2019 08:12 24,7 C 8,3 C 6,2 C 0,4 C 30 % 66 % 87 % 1033,0 hPa 0,0 l/m 1,9 km/h (1 Bft) S-SO 157 2,3 C 8,3 C 0,0 km/h (0 Bft)
22.03.2019 08:10 24,7 C 8,2 C 6,3 C 0,1 C 30 % 66 % 87 % 1033,0 hPa 0,0 l/m 1,9 km/h (1 Bft) NW 315 2,2 C 8,2 C 2,9 km/h (1 Bft)
22.03.2019 08:08 24,7 C 8,1 C 6,1 C 0,0 C 30 % 66 % 87 % 1033,0 hPa 0,0 l/m 1,8 km/h (1 Bft) SW 225 2,1 C 8,1 C 5,8 km/h (2 Bft)
22.03.2019 08:06 24,7 C 8,1 C 6,0 C -0,1 C 30 % 66 % 86 % 1033,0 hPa 0,0 l/m 1,3 km/h (1 Bft) W 270 2,1 C 8,1 C 3,1 km/h (1 Bft)
22.03.2019 08:04 24,7 C 8,0 C 6,0 C -0,3 C 30 % 66 % 86 % 1033,0 hPa 0,0 l/m 0,8 km/h (0 Bft) S-SW 202 2,0 C 8,0 C 6,5 km/h (2 Bft)
22.03.2019 08:02 24,6 C 8,0 C 5,9 C -0,3 C 30 % 67 % 86 % 1033,0 hPa 0,0 l/m 0,3 km/h (0 Bft) W 270 2,3 C 8,0 C 5,3 km/h (1 Bft)
22.03.2019 08:00 24,7 C 7,6 C 5,1 C -0,3 C 30 % 67 % 86 % 1033,3 hPa 0,0 l/m 0,2 km/h (0 Bft) S-SO 157 1,9 C 7,6 C 0,0 km/h (0 Bft)
22.03.2019 07:58 24,6 C 7,6 C 4,9 C -0,4 C 30 % 67 % 86 % 1033,3 hPa 0,0 l/m 0,2 km/h (0 Bft) W 270 1,9 C 7,6 C 0,0 km/h (0 Bft)
22.03.2019 07:56 24,6 C 7,4 C 4,8 C -0,4 C 30 % 67 % 86 % 1033,3 hPa 0,0 l/m 0,3 km/h (0 Bft) N 360 1,7 C 7,4 C 0,0 km/h (0 Bft)
22.03.2019 07:54 24,6 C 7,0 C 4,8 C -0,4 C 30 % 67 % 86 % 1033,3 hPa 0,0 l/m 0,5 km/h (0 Bft) NO 45 1,3 C 7,0 C 0,0 km/h (0 Bft)
22.03.2019 07:52 24,6 C 5,9 C 4,4 C -0,5 C 30 % 70 % 86 % 1033,3 hPa 0,0 l/m 0,3 km/h (0 Bft) O-SO 112 0,9 C 5,9 C 0,0 km/h (0 Bft)
22.03.2019 07:50 24,6 C 5,9 C 4,0 C -0,5 C 30 % 70 % 86 % 1033,3 hPa 0,0 l/m 0,3 km/h (0 Bft) W 270 0,9 C 5,9 C 0,0 km/h (0 Bft)
22.03.2019 07:48 24,6 C 5,9 C 4,0 C -0,7 C 30 % 70 % 86 % 1033,3 hPa 0,0 l/m 0,5 km/h (0 Bft) S-SO 157 0,9 C 5,9 C 0,0 km/h (0 Bft)
22.03.2019 07:46 24,6 C 5,6 C 3,9 C -0,9 C 30 % 70 % 86 % 1033,3 hPa 0,0 l/m 0,6 km/h (0 Bft) W-SW 247 0,6 C 5,6 C 0,0 km/h (0 Bft)
22.03.2019 07:44 24,6 C 5,1 C 4,0 C -0,9 C 30 % 71 % 86 % 1033,3 hPa 0,0 l/m 1,0 km/h (0 Bft) S-SO 157 0,3 C 5,1 C 4,3 km/h (1 Bft)
22.03.2019 07:42 24,6 C 4,8 C 3,1 C -1,0 C 30 % 71 % 86 % 1033,3 hPa 0,0 l/m 1,0 km/h (0 Bft) S-SW 202 -0,0 C 4,8 C 0,0 km/h (0 Bft)
22.03.2019 07:40 24,6 C 4,7 C 2,8 C -1,0 C 30 % 71 % 86 % 1033,3 hPa 0,0 l/m 1,6 km/h (1 Bft) S-SW 202 -0,1 C 4,7 C 0,0 km/h (0 Bft)
22.03.2019 07:38 24,6 C 4,5 C 2,7 C -1,2 C 30 % 71 % 86 % 1033,3 hPa 0,0 l/m 2,1 km/h (1 Bft) S-SW 202 -0,3 C 4,5 C 2,7 km/h (1 Bft)
22.03.2019 07:36 24,6 C 4,2 C 2,4 C -1,2 C 31 % 71 % 86 % 1033,3 hPa 0,0 l/m 2,3 km/h (1 Bft) S 180 -0,6 C 4,2 C 4,3 km/h (1 Bft)
22.03.2019 07:34 24,6 C 4,0 C 2,2 C -1,3 C 30 % 71 % 86 % 1033,3 hPa 0,0 l/m 1,9 km/h (1 Bft) S 180 -0,8 C 4,0 C 4,1 km/h (1 Bft)
22.03.2019 07:32 24,6 C 3,7 C 2,0 C -1,6 C 30 % 72 % 86 % 1033,3 hPa 0,0 l/m 1,6 km/h (1 Bft) S 180 -0,9 C 3,7 C 3,4 km/h (1 Bft)
22.03.2019 07:30 24,6 C 3,7 C 1,8 C -1,6 C 30 % 72 % 86 % 1033,3 hPa 0,0 l/m 1,6 km/h (1 Bft) S-SW 202 -0,9 C 3,7 C 3,6 km/h (1 Bft)
22.03.2019 07:28 24,6 C 3,7 C 1,8 C -1,7 C 30 % 72 % 86 % 1033,3 hPa 0,0 l/m 1,1 km/h (1 Bft) SW 225 -0,9 C 3,7 C 5,6 km/h (1 Bft)
22.03.2019 07:26 24,5 C 3,6 C 1,8 C -1,7 C 30 % 72 % 86 % 1033,3 hPa 0,0 l/m 0,5 km/h (0 Bft) SW 225 -1,0 C 3,6 C 4,1 km/h (1 Bft)
22.03.2019 07:24 24,5 C 3,2 C 1,6 C -1,9 C 30 % 72 % 86 % 1033,3 hPa 0,0 l/m 0,3 km/h (0 Bft) S 180 -1,3 C 3,2 C 0,0 km/h (0 Bft)
22.03.2019 07:22 24,5 C 3,1 C 1,3 C -2,0 C 30 % 72 % 86 % 1033,3 hPa 0,0 l/m 0,3 km/h (0 Bft) W-SW 247 -1,4 C 3,1 C 0,0 km/h (0 Bft)
22.03.2019 07:20 24,5 C 2,7 C 1,2 C -2,0 C 30 % 73 % 86 % 1033,3 hPa 0,0 l/m 0,3 km/h (0 Bft) S 180 -1,6 C 2,7 C 4,3 km/h (1 Bft)
22.03.2019 07:18 24,5 C 2,7 C 1,1 C -2,1 C 30 % 73 % 86 % 1033,3 hPa 0,0 l/m 0,2 km/h (0 Bft) S-SW 202 -1,6 C 2,7 C 4,1 km/h (1 Bft)
22.03.2019 07:16 24,5 C 2,5 C 0,8 C -2,3 C 30 % 73 % 86 % 1033,3 hPa 0,0 l/m 0,2 km/h (0 Bft) S-SW 202 -1,8 C 2,5 C 0,0 km/h (0 Bft)
22.03.2019 07:14 24,5 C 2,5 C 0,7 C -2,3 C 30 % 73 % 86 % 1033,3 hPa 0,0 l/m 0,2 km/h (0 Bft) W-SW 247 -1,8 C 2,5 C 0,0 km/h (0 Bft)
22.03.2019 07:12 24,5 C 2,2 C 0,7 C -2,4 C 31 % 74 % 86 % 1033,3 hPa 0,0 l/m 0,2 km/h (0 Bft) S-SW 202 -1,9 C 2,2 C 0,0 km/h (0 Bft)
22.03.2019 07:10 24,5 C 2,2 C 0,6 C -2,4 C 30 % 74 % 86 % 1033,3 hPa 0,0 l/m 0,2 km/h (0 Bft) S 180 -1,9 C 2,2 C 0,0 km/h (0 Bft)
22.03.2019 07:08 24,5 C 2,0 C 0,5 C -2,5 C 31 % 74 % 86 % 1033,3 hPa 0,0 l/m 0,2 km/h (0 Bft) S-SW 202 -2,1 C 2,0 C 0,0 km/h (0 Bft)
22.03.2019 07:06 24,5 C 1,8 C 0,3 C -2,5 C 30 % 74 % 86 % 1033,3 hPa 0,0 l/m 0,2 km/h (0 Bft) SW 225 -2,3 C 1,8 C 3,1 km/h (1 Bft)
22.03.2019 07:04 24,5 C 1,8 C 0,1 C -2,7 C 31 % 74 % 86 % 1033,3 hPa 0,0 l/m 0,0 km/h (0 Bft) SW 225 -2,3 C 1,8 C 0,0 km/h (0 Bft)
22.03.2019 07:02 24,5 C 1,6 C -0,2 C -2,7 C 31 % 74 % 85 % 1033,3 hPa 0,0 l/m 0,2 km/h (0 Bft) W-SW 247 -2,5 C 1,6 C 0,0 km/h (0 Bft)
22.03.2019 07:00 24,5 C 1,5 C -0,1 C -2,8 C 31 % 74 % 85 % 1033,3 hPa 0,0 l/m 0,5 km/h (0 Bft) S-SO 157 -2,6 C 1,5 C 0,0 km/h (0 Bft)
22.03.2019 06:58 24,5 C 1,3 C -0,3 C -2,8 C 31 % 74 % 85 % 1033,3 hPa 0,0 l/m 0,8 km/h (0 Bft) SO 135 -2,8 C 1,3 C 0,0 km/h (0 Bft)
22.03.2019 06:56 24,4 C 0,7 C -0,3 C -2,8 C 30 % 68 % 85 % 1033,3 hPa 0,0 l/m 1,3 km/h (1 Bft) S-SW 202 -4,5 C 0,7 C 3,1 km/h (1 Bft)
22.03.2019 06:54 24,4 C 0,7 C -1,6 C -2,4 C 31 % 68 % 78 % 1033,3 hPa 0,0 l/m 1,9 km/h (1 Bft) SO 135 -4,5 C 0,7 C 0,0 km/h (0 Bft)
22.03.2019 06:52 24,5 C 0,7 C -1,6 C -2,4 C 31 % 68 % 78 % 1033,3 hPa 0,0 l/m 2,3 km/h (1 Bft) S-SO 157 -4,5 C 0,7 C 0,0 km/h (0 Bft)
22.03.2019 06:50 24,5 C 0,7 C -1,6 C -2,4 C 30 % 68 % 78 % 1033,3 hPa 0,0 l/m 2,9 km/h (1 Bft) S-SW 202 -4,5 C 0,7 C 2,7 km/h (1 Bft)
22.03.2019 06:48 24,4 C 0,7 C -1,6 C -2,4 C 30 % 68 % 78 % 1033,3 hPa 0,0 l/m 3,2 km/h (1 Bft) SW 225 -4,5 C 0,7 C 4,6 km/h (1 Bft)
22.03.2019 06:46 24,4 C 0,7 C -1,6 C -2,4 C 31 % 68 % 78 % 1033,3 hPa 0,0 l/m 3,2 km/h (1 Bft) S-SW 202 -4,5 C 0,7 C 5,3 km/h (1 Bft)
22.03.2019 06:44 24,4 C 0,7 C -1,6 C -2,4 C 31 % 68 % 78 % 1033,3 hPa 0,0 l/m 2,7 km/h (1 Bft) S-SW 202 -4,5 C 0,7 C 6,0 km/h (2 Bft)
22.03.2019 06:42 24,4 C 0,7 C -1,6 C -2,4 C 30 % 68 % 78 % 1033,3 hPa 0,0 l/m 2,3 km/h (1 Bft) S-SW 202 -4,5 C 0,7 C 7,7 km/h (2 Bft)
22.03.2019 06:40 24,4 C 0,7 C -1,6 C -2,4 C 31 % 68 % 78 % 1032,9 hPa 0,0 l/m 1,4 km/h (1 Bft) S-SW 202 -4,5 C 0,7 C 5,8 km/h (2 Bft)
22.03.2019 06:38 24,4 C 0,7 C -1,6 C -2,4 C 31 % 68 % 78 % 1032,9 hPa 0,0 l/m 0,8 km/h (0 Bft) S 180 -4,5 C 0,7 C 5,8 km/h (2 Bft)
22.03.2019 06:36 24,4 C 0,7 C -1,6 C -2,4 C 31 % 68 % 78 % 1032,9 hPa 0,0 l/m 0,5 km/h (0 Bft) S-SW 202 -4,5 C 0,7 C 5,1 km/h (1 Bft)
22.03.2019 06:34 24,4 C 0,7 C -1,6 C -2,4 C 31 % 68 % 78 % 1032,9 hPa 0,0 l/m 0,0 km/h (0 Bft) SW 225 -4,5 C 0,7 C 0,0 km/h (0 Bft)
22.03.2019 06:32 24,4 C 0,7 C -1,6 C -2,4 C 31 % 68 % 78 % 1032,9 hPa 0,0 l/m 0,0 km/h (0 Bft) S-SW 202 -4,5 C 0,7 C 0,0 km/h (0 Bft)
22.03.2019 06:30 24,4 C 0,7 C -1,6 C -2,4 C 31 % 68 % 78 % 1032,9 hPa 0,0 l/m 0,0 km/h (0 Bft) SW 225 -4,5 C 0,7 C 0,0 km/h (0 Bft)
22.03.2019 06:28 24,4 C 0,7 C -1,6 C -2,4 C 31 % 68 % 78 % 1032,9 hPa 0,0 l/m 0,2 km/h (0 Bft) S-SW 202 -4,5 C 0,7 C 0,0 km/h (0 Bft)
22.03.2019 06:26 24,4 C 0,7 C -1,6 C -2,4 C 31 % 68 % 78 % 1032,9 hPa 0,0 l/m 0,2 km/h (0 Bft) SW 225 -4,5 C 0,7 C 0,0 km/h (0 Bft)
22.03.2019 06:24 24,4 C 0,7 C -1,6 C -2,4 C 31 % 68 % 78 % 1032,9 hPa 0,0 l/m 0,2 km/h (0 Bft) S-SW 202 -4,5 C 0,7 C 0,0 km/h (0 Bft)
22.03.2019 06:22 24,4 C 0,7 C -1,6 C -2,4 C 31 % 68 % 78 % 1032,9 hPa 0,0 l/m 0,2 km/h (0 Bft) W 270 -4,5 C 0,7 C 0,0 km/h (0 Bft)
22.03.2019 06:20 24,4 C 0,7 C -1,6 C -2,4 C 31 % 68 % 78 % 1033,2 hPa 0,0 l/m 0,3 km/h (0 Bft) S-SW 202 -4,5 C 0,7 C 0,0 km/h (0 Bft)
22.03.2019 06:18 24,4 C 0,7 C -1,6 C -2,4 C 31 % 68 % 78 % 1033,2 hPa 0,0 l/m 0,5 km/h (0 Bft) SW 225 -4,5 C 0,7 C 0,0 km/h (0 Bft)
22.03.2019 06:16 24,4 C 0,7 C -1,6 C -2,4 C 31 % 68 % 78 % 1033,2 hPa 0,0 l/m 1,0 km/h (0 Bft) SW 225 -4,5 C 0,7 C 0,0 km/h (0 Bft)
22.03.2019 06:14 24,4 C 0,7 C -1,6 C -2,4 C 31 % 68 % 78 % 1033,2 hPa 0,0 l/m 1,1 km/h (1 Bft) W-SW 247 -4,5 C 0,7 C 0,0 km/h (0 Bft)
22.03.2019 06:12 24,4 C 0,7 C -1,6 C -2,4 C 31 % 68 % 78 % 1033,2 hPa 0,0 l/m 1,8 km/h (1 Bft) O-SO 112 -4,5 C 0,7 C 0,0 km/h (0 Bft)
22.03.2019 06:10 24,4 C 0,7 C -1,6 C -2,4 C 31 % 68 % 78 % 1033,2 hPa 0,0 l/m 2,1 km/h (1 Bft) O-NO 67 -4,5 C 0,7 C 0,0 km/h (0 Bft)
22.03.2019 06:08 24,4 C 0,7 C -1,6 C -2,4 C 31 % 68 % 78 % 1033,2 hPa 0,0 l/m 2,1 km/h (1 Bft) O-NO 67 -4,5 C 0,7 C 0,0 km/h (0 Bft)
22.03.2019 06:06 24,4 C 0,7 C -1,6 C -2,4 C 31 % 68 % 78 % 1033,2 hPa 0,0 l/m 2,1 km/h (1 Bft) O-NO 67 -4,5 C 0,7 C 0,0 km/h (0 Bft)
22.03.2019 06:04 24,4 C 0,7 C -1,6 C -2,4 C 31 % 68 % 78 % 1033,2 hPa 0,0 l/m 2,1 km/h (1 Bft) O-NO 67 -4,5 C 0,7 C 0,0 km/h (0 Bft)
22.03.2019 06:02 24,4 C 0,7 C -1,6 C -2,4 C 30 % 68 % 78 % 1033,2 hPa 0,0 l/m 2,1 km/h (1 Bft) O-NO 67 -4,5 C 0,7 C 0,0 km/h (0 Bft)
22.03.2019 06:00 24,5 C 0,7 C -1,6 C -2,4 C 30 % 68 % 78 % 1033,2 hPa 0,0 l/m 2,1 km/h (1 Bft) O-NO 67 -4,5 C 0,7 C 0,0 km/h (0 Bft)
22.03.2019 05:58 24,4 C 0,7 C -1,6 C -2,4 C 30 % 68 % 78 % 1033,2 hPa 0,0 l/m 2,3 km/h (1 Bft) S-SO 157 -4,5 C 0,7 C 0,0 km/h (0 Bft)
22.03.2019 05:56 24,4 C 0,7 C -1,6 C -2,4 C 30 % 68 % 78 % 1033,2 hPa 0,0 l/m 1,9 km/h (1 Bft) S 180 -4,5 C 0,7 C 5,8 km/h (2 Bft)
22.03.2019 05:54 24,5 C 0,7 C -1,6 C -2,4 C 30 % 68 % 78 % 1033,2 hPa 0,0 l/m 1,3 km/h (1 Bft) S-SW 202 -4,5 C 0,7 C 7,2 km/h (2 Bft)
22.03.2019 05:52 24,5 C 0,7 C -1,6 C -2,4 C 30 % 68 % 78 % 1033,2 hPa 0,0 l/m 1,1 km/h (1 Bft) S 180 -4,5 C 0,7 C 6,3 km/h (2 Bft)
22.03.2019 05:50 24,5 C 0,7 C -1,6 C -2,4 C 30 % 68 % 78 % 1033,2 hPa 0,0 l/m 1,0 km/h (0 Bft) S-SW 202 -4,5 C 0,7 C 0,0 km/h (0 Bft)
22.03.2019 05:48 24,5 C 0,7 C -1,6 C -2,4 C 30 % 68 % 78 % 1033,2 hPa 0,0 l/m 1,4 km/h (1 Bft) S 180 -4,5 C 0,7 C 0,0 km/h (0 Bft)
22.03.2019 05:46 24,5 C 0,7 C -1,6 C -2,4 C 30 % 68 % 78 % 1033,2 hPa 0,0 l/m 1,9 km/h (1 Bft) O-SO 112 -4,5 C 0,7 C 2,4 km/h (1 Bft)
22.03.2019 05:44 24,5 C 0,7 C -1,6 C -2,4 C 30 % 68 % 78 % 1033,2 hPa 0,0 l/m 2,1 km/h (1 Bft) S-SO 157 -4,5 C 0,7 C 0,0 km/h (0 Bft)
22.03.2019 05:42 24,5 C 0,7 C -1,6 C -2,4 C 30 % 68 % 78 % 1033,2 hPa 0,0 l/m 1,9 km/h (1 Bft) S 180 -4,5 C 0,7 C 0,0 km/h (0 Bft)
22.03.2019 05:40 24,6 C 0,7 C -1,6 C -2,4 C 30 % 68 % 78 % 1032,6 hPa 0,0 l/m 1,8 km/h (1 Bft) S-SW 202 -4,5 C 0,7 C 5,1 km/h (1 Bft)
22.03.2019 05:38 24,6 C 0,7 C -1,6 C -2,4 C 30 % 68 % 78 % 1032,6 hPa 0,0 l/m 1,0 km/h (0 Bft) S-SW 202 -4,5 C 0,7 C 5,3 km/h (1 Bft)
22.03.2019 05:36 24,6 C 0,7 C -1,6 C -2,4 C 30 % 68 % 78 % 1032,6 hPa 0,0 l/m 0,5 km/h (0 Bft) S-SW 202 -4,5 C 0,7 C 5,1 km/h (1 Bft)
22.03.2019 05:34 24,6 C 0,7 C -1,6 C -2,4 C 30 % 68 % 78 % 1032,6 hPa 0,0 l/m 0,2 km/h (0 Bft) SW 225 -4,5 C 0,7 C 3,9 km/h (1 Bft)
22.03.2019 05:32 24,6 C 0,7 C -1,6 C -2,4 C 30 % 68 % 78 % 1032,6 hPa 0,0 l/m 0,2 km/h (0 Bft) W-SW 247 -4,5 C 0,7 C 0,0 km/h (0 Bft)
22.03.2019 05:30 24,6 C 0,7 C -1,6 C -2,4 C 30 % 68 % 78 % 1032,6 hPa 0,0 l/m 0,2 km/h (0 Bft) SW 225 -4,5 C 0,7 C 0,0 km/h (0 Bft)
22.03.2019 05:28 24,6 C 0,7 C -1,6 C -2,4 C 30 % 68 % 78 % 1032,6 hPa 0,0 l/m 0,2 km/h (0 Bft) O 90 -4,5 C 0,7 C 0,0 km/h (0 Bft)
22.03.2019 05:26 24,6 C 0,7 C -1,6 C -2,4 C 30 % 68 % 78 % 1032,6 hPa 0,0 l/m 0,2 km/h (0 Bft) O-NO 67 -4,5 C 0,7 C 0,0 km/h (0 Bft)
22.03.2019 05:24 24,7 C 0,7 C -1,6 C -2,4 C 30 % 68 % 78 % 1032,6 hPa 0,0 l/m 0,2 km/h (0 Bft) SO 135 -4,5 C 0,7 C 0,0 km/h (0 Bft)
22.03.2019 05:22 24,7 C 0,7 C -1,6 C -2,4 C 30 % 68 % 78 % 1032,6 hPa 0,0 l/m 0,0 km/h (0 Bft) SW 225 -4,5 C 0,7 C 0,0 km/h (0 Bft)
22.03.2019 05:20 24,7 C 0,7 C -1,6 C -2,4 C 30 % 68 % 78 % 1032,6 hPa 0,0 l/m 0,0 km/h (0 Bft) S-SW 202 -4,5 C 0,7 C 0,0 km/h (0 Bft)
22.03.2019 05:18 24,7 C 0,7 C -1,6 C -2,4 C 30 % 68 % 78 % 1032,6 hPa 0,0 l/m 0,0 km/h (0 Bft) S-SW 202 -4,5 C 0,7 C 0,0 km/h (0 Bft)
22.03.2019 05:16 24,8 C 0,7 C -1,6 C -2,4 C 30 % 68 % 78 % 1032,6 hPa 0,0 l/m 0,0 km/h (0 Bft) S 180 -4,5 C 0,7 C 0,0 km/h (0 Bft)
22.03.2019 05:14 24,8 C 0,7 C -1,6 C -2,4 C 30 % 68 % 78 % 1032,6 hPa 0,0 l/m 0,0 km/h (0 Bft) S-SW 202 -4,5 C 0,7 C 0,0 km/h (0 Bft)
22.03.2019 05:12 24,8 C 0,7 C -1,6 C -2,4 C 30 % 68 % 78 % 1032,6 hPa 0,0 l/m 0,0 km/h (0 Bft) S 180 -4,5 C 0,7 C 0,0 km/h (0 Bft)
22.03.2019 05:10 24,8 C 0,7 C -1,6 C -2,4 C 30 % 68 % 78 % 1032,6 hPa 0,0 l/m 0,0 km/h (0 Bft) W-SW 247 -4,5 C 0,7 C 0,0 km/h (0 Bft)
22.03.2019 05:08 24,9 C 0,7 C -1,6 C -2,4 C 30 % 68 % 78 % 1032,6 hPa 0,0 l/m 0,0 km/h (0 Bft) S 180 -4,5 C 0,7 C 0,0 km/h (0 Bft)
22.03.2019 05:06 24,9 C 0,7 C -1,6 C -2,4 C 30 % 68 % 78 % 1032,6 hPa 0,0 l/m 0,0 km/h (0 Bft) SW 225 -4,5 C 0,7 C 0,0 km/h (0 Bft)
22.03.2019 05:04 24,9 C 0,7 C -1,6 C -2,4 C 30 % 68 % 78 % 1032,6 hPa 0,0 l/m 0,0 km/h (0 Bft) N-NO 22 -4,5 C 0,7 C 0,0 km/h (0 Bft)
22.03.2019 05:02 24,9 C 0,7 C -1,6 C -2,4 C 30 % 68 % 78 % 1032,6 hPa 0,0 l/m 0,0 km/h (0 Bft) SW 225 -4,5 C 0,7 C 0,0 km/h (0 Bft)
22.03.2019 05:00 24,9 C 0,7 C -1,6 C -2,4 C 30 % 68 % 78 % 1032,8 hPa 0,0 l/m 0,0 km/h (0 Bft) S-SO 157 -4,5 C 0,7 C 0,0 km/h (0 Bft)
22.03.2019 04:58 24,9 C 0,7 C -1,6 C -2,4 C 30 % 68 % 78 % 1032,8 hPa 0,0 l/m 0,0 km/h (0 Bft) S-SW 202 -4,5 C 0,7 C 0,0 km/h (0 Bft)
22.03.2019 04:56 25,0 C 0,7 C -1,6 C -2,4 C 30 % 68 % 78 % 1032,8 hPa 0,0 l/m 0,0 km/h (0 Bft) O-SO 112 -4,5 C 0,7 C 0,0 km/h (0 Bft)
22.03.2019 04:54 25,0 C 0,7 C -1,6 C -2,4 C 30 % 68 % 78 % 1032,8 hPa 0,0 l/m 0,0 km/h (0 Bft) S-SO 157 -4,5 C 0,7 C 0,0 km/h (0 Bft)
22.03.2019 04:52 25,0 C 0,7 C -1,6 C -2,4 C 30 % 68 % 78 % 1032,8 hPa 0,0 l/m 0,0 km/h (0 Bft) NO 45 -4,5 C 0,7 C 0,0 km/h (0 Bft)
22.03.2019 04:50 25,0 C 0,7 C -1,6 C -2,4 C 30 % 68 % 78 % 1032,8 hPa 0,0 l/m 0,0 km/h (0 Bft) SW 225 -4,5 C 0,7 C 0,0 km/h (0 Bft)
22.03.2019 04:48 25,0 C 0,7 C -1,6 C -2,4 C 30 % 68 % 78 % 1032,8 hPa 0,0 l/m 0,0 km/h (0 Bft) N 360 -4,5 C 0,7 C 0,0 km/h (0 Bft)
22.03.2019 04:46 25,0 C 0,7 C -1,6 C -2,4 C 30 % 68 % 78 % 1032,8 hPa 0,0 l/m 0,0 km/h (0 Bft) S-SW 202 -4,5 C 0,7 C 0,0 km/h (0 Bft)
22.03.2019 04:44 25,0 C 0,7 C -1,6 C -2,4 C 30 % 68 % 78 % 1032,8 hPa 0,0 l/m 0,0 km/h (0 Bft) W-SW 247 -4,5 C 0,7 C 0,0 km/h (0 Bft)
22.03.2019 04:42 25,0 C 0,7 C -1,6 C -2,4 C 30 % 68 % 78 % 1032,8 hPa 0,0 l/m 0,0 km/h (0 Bft) S-SW 202 -4,5 C 0,7 C 0,0 km/h (0 Bft)
22.03.2019 04:40 25,1 C 0,7 C -1,6 C -2,4 C 30 % 68 % 78 % 1032,9 hPa 0,0 l/m 0,0 km/h (0 Bft) SW 225 -4,5 C 0,7 C 0,0 km/h (0 Bft)
22.03.2019 04:38 25,1 C 0,7 C -1,6 C -2,4 C 30 % 68 % 78 % 1032,9 hPa 0,0 l/m 0,0 km/h (0 Bft) O-NO 67 -4,5 C 0,7 C 0,0 km/h (0 Bft)
22.03.2019 04:36 25,1 C 0,7 C -1,6 C -2,4 C 30 % 68 % 78 % 1032,9 hPa 0,0 l/m 0,0 km/h (0 Bft) NO 45 -4,5 C 0,7 C 0,0 km/h (0 Bft)
22.03.2019 04:34 25,1 C 0,7 C -1,6 C -2,4 C 30 % 68 % 78 % 1032,9 hPa 0,0 l/m 0,0 km/h (0 Bft) O 90 -4,5 C 0,7 C 0,0 km/h (0 Bft)
22.03.2019 04:32 25,1 C 0,7 C -1,6 C -2,4 C 30 % 68 % 78 % 1032,9 hPa 0,0 l/m 0,0 km/h (0 Bft) S-SW 202 -4,5 C 0,7 C 0,0 km/h (0 Bft)
22.03.2019 04:30 25,1 C 0,7 C -1,6 C -2,4 C 30 % 68 % 78 % 1032,9 hPa 0,0 l/m 0,0 km/h (0 Bft) S-SW 202 -4,5 C 0,7 C 0,0 km/h (0 Bft)
22.03.2019 04:28 25,1 C 0,7 C -1,6 C -2,4 C 30 % 68 % 78 % 1032,9 hPa 0,0 l/m 0,0 km/h (0 Bft) SO 135 -4,5 C 0,7 C 0,0 km/h (0 Bft)
22.03.2019 04:26 25,1 C 0,7 C -1,6 C -2,4 C 30 % 68 % 78 % 1032,9 hPa 0,0 l/m 0,0 km/h (0 Bft) SO 135 -4,5 C 0,7 C 0,0 km/h (0 Bft)
22.03.2019 04:24 25,2 C 0,7 C -1,6 C -2,4 C 30 % 68 % 78 % 1032,9 hPa 0,0 l/m 0,2 km/h (0 Bft) O-SO 112 -4,5 C 0,7 C 0,0 km/h (0 Bft)
22.03.2019 04:22 25,2 C 0,7 C -1,6 C -2,4 C 30 % 68 % 78 % 1032,9 hPa 0,0 l/m 0,2 km/h (0 Bft) O-NO 67 -4,5 C 0,7 C 0,0 km/h (0 Bft)
22.03.2019 04:20 25,2 C 0,7 C -1,6 C -2,4 C 30 % 68 % 78 % 1033,1 hPa 0,0 l/m 0,5 km/h (0 Bft) S-SO 157 -4,5 C 0,7 C 0,0 km/h (0 Bft)
22.03.2019 04:18 25,2 C 0,7 C -1,6 C -2,4 C 30 % 68 % 78 % 1033,1 hPa 0,0 l/m 0,6 km/h (0 Bft) O 90 -4,5 C 0,7 C 0,0 km/h (0 Bft)
22.03.2019 04:16 25,2 C 0,7 C -1,6 C -2,4 C 30 % 68 % 78 % 1033,1 hPa 0,0 l/m 0,8 km/h (0 Bft) O-NO 67 -4,5 C 0,7 C 0,0 km/h (0 Bft)
22.03.2019 04:14 25,2 C 0,7 C -1,6 C -2,4 C 30 % 68 % 78 % 1033,1 hPa 0,0 l/m 1,3 km/h (1 Bft) O-NO 67 -4,5 C 0,7 C 0,0 km/h (0 Bft)
22.03.2019 04:12 25,2 C 0,7 C -1,6 C -2,4 C 30 % 68 % 78 % 1033,1 hPa 0,0 l/m 1,8 km/h (1 Bft) S 180 -4,5 C 0,7 C 0,0 km/h (0 Bft)
22.03.2019 04:10 25,2 C 0,7 C -1,6 C -2,4 C 30 % 68 % 78 % 1033,1 hPa 0,0 l/m 1,9 km/h (1 Bft) S 180 -4,5 C 0,7 C 4,1 km/h (1 Bft)
22.03.2019 04:05 25,2 C 0,7 C -1,6 C -2,4 C 30 % 68 % 78 % 1033,1 hPa 0,0 l/m 2,3 km/h (1 Bft) O-SO 112 -4,5 C 0,7 C 0,0 km/h (0 Bft)
22.03.2019 04:00 25,2 C 0,7 C -1,6 C -2,4 C 30 % 68 % 78 % 1032,9 hPa 0,0 l/m 1,0 km/h (0 Bft) S 180 -4,5 C 0,7 C 4,6 km/h (1 Bft)
22.03.2019 03:58 25,2 C 0,7 C -1,6 C -2,4 C 30 % 68 % 78 % 1032,9 hPa 0,0 l/m 1,0 km/h (0 Bft) S 180 -4,5 C 0,7 C 4,6 km/h (1 Bft)
22.03.2019 03:56 25,2 C 0,7 C -1,6 C -2,4 C 30 % 68 % 78 % 1032,9 hPa 0,0 l/m 0,3 km/h (0 Bft) S-SW 202 -4,5 C 0,7 C 3,1 km/h (1 Bft)
22.03.2019 03:54 25,2 C 0,7 C -1,6 C -2,4 C 30 % 68 % 78 % 1032,9 hPa 0,0 l/m 0,5 km/h (0 Bft) S-SW 202 -4,5 C 0,7 C 2,4 km/h (1 Bft)
22.03.2019 03:52 25,2 C 0,7 C -1,6 C -2,4 C 30 % 68 % 78 % 1032,9 hPa 0,0 l/m 0,5 km/h (0 Bft) S-SW 202 -4,5 C 0,7 C 0,0 km/h (0 Bft)
22.03.2019 03:50 25,2 C 0,7 C -1,6 C -2,4 C 30 % 68 % 78 % 1032,9 hPa 0,0 l/m 0,5 km/h (0 Bft) S 180 -4,5 C 0,7 C 0,0 km/h (0 Bft)
22.03.2019 03:48 25,2 C 0,7 C -1,6 C -2,4 C 30 % 68 % 78 % 1032,9 hPa 0,0 l/m 0,5 km/h (0 Bft) O-NO 67 -4,5 C 0,7 C 0,0 km/h (0 Bft)
22.03.2019 03:46 25,2 C 0,7 C -1,6 C -2,4 C 30 % 68 % 78 % 1032,9 hPa 0,0 l/m 0,5 km/h (0 Bft) O-NO 67 -4,5 C 0,7 C 2,7 km/h (1 Bft)
22.03.2019 03:44 25,3 C 0,7 C -1,6 C -2,4 C 30 % 68 % 78 % 1032,9 hPa 0,0 l/m 0,3 km/h (0 Bft) O-NO 67 -4,5 C 0,7 C 3,9 km/h (1 Bft)
22.03.2019 03:42 25,3 C 0,7 C -1,6 C -2,4 C 30 % 68 % 78 % 1032,9 hPa 0,0 l/m 0,3 km/h (0 Bft) O-NO 67 -4,5 C 0,7 C 3,9 km/h (1 Bft)
22.03.2019 03:40 25,3 C 0,7 C -1,6 C -2,4 C 30 % 68 % 78 % 1033,4 hPa 0,0 l/m 0,0 km/h (0 Bft) O-NO 67 -4,5 C 0,7 C 0,0 km/h (0 Bft)
22.03.2019 03:38 25,3 C 0,7 C -1,6 C -2,4 C 30 % 68 % 78 % 1033,4 hPa 0,0 l/m 0,2 km/h (0 Bft) NO 45 -4,5 C 0,7 C 0,0 km/h (0 Bft)
22.03.2019 03:36 25,3 C 0,7 C -1,6 C -2,4 C 30 % 68 % 78 % 1033,4 hPa 0,0 l/m 0,2 km/h (0 Bft) S-SO 157 -4,5 C 0,7 C 0,0 km/h (0 Bft)
22.03.2019 03:34 25,3 C 0,7 C -1,6 C -2,4 C 30 % 68 % 78 % 1033,4 hPa 0,0 l/m 0,2 km/h (0 Bft) S-SO 157 -4,5 C 0,7 C 0,0 km/h (0 Bft)
22.03.2019 03:32 25,3 C 0,7 C -1,6 C -2,4 C 30 % 68 % 78 % 1033,4 hPa 0,0 l/m 0,2 km/h (0 Bft) S 180 -4,5 C 0,7 C 0,0 km/h (0 Bft)
22.03.2019 03:30 25,3 C 0,7 C -1,6 C -2,4 C 30 % 68 % 78 % 1033,4 hPa 0,0 l/m 0,2 km/h (0 Bft) S 180 -4,5 C 0,7 C 0,0 km/h (0 Bft)
22.03.2019 03:28 25,3 C 0,7 C -1,6 C -2,4 C 30 % 68 % 78 % 1033,4 hPa 0,0 l/m 0,5 km/h (0 Bft) O-SO 112 -4,5 C 0,7 C 0,0 km/h (0 Bft)
22.03.2019 03:26 25,3 C 0,7 C -1,6 C -2,4 C 30 % 68 % 78 % 1033,4 hPa 0,0 l/m 0,5 km/h (0 Bft) O-NO 67 -4,5 C 0,7 C 3,4 km/h (1 Bft)
22.03.2019 03:24 25,2 C 0,7 C -1,6 C -2,4 C 30 % 68 % 78 % 1033,4 hPa 0,0 l/m 0,6 km/h (0 Bft) O-NO 67 -4,5 C 0,7 C 0,0 km/h (0 Bft)
22.03.2019 03:22 25,2 C 0,7 C -1,6 C -2,4 C 30 % 68 % 78 % 1033,4 hPa 0,0 l/m 0,5 km/h (0 Bft) S-SW 202 -4,5 C 0,7 C 0,0 km/h (0 Bft)
22.03.2019 03:20 25,2 C 0,7 C -1,6 C -2,4 C 30 % 68 % 78 % 1033,4 hPa 0,0 l/m 0,5 km/h (0 Bft) SW 225 -4,5 C 0,7 C 3,9 km/h (1 Bft)
22.03.2019 03:18 25,2 C 0,7 C -1,6 C -2,4 C 30 % 68 % 78 % 1033,4 hPa 0,0 l/m 0,5 km/h (0 Bft) SW 225 -4,5 C 0,7 C 3,9 km/h (1 Bft)
22.03.2019 03:16 25,2 C 0,7 C -1,6 C -2,4 C 30 % 68 % 78 % 1033,4 hPa 0,0 l/m 0,0 km/h (0 Bft) SW 225 -4,5 C 0,7 C 0,0 km/h (0 Bft)
22.03.2019 03:14 25,2 C 0,7 C -1,6 C -2,4 C 30 % 68 % 78 % 1033,4 hPa 0,0 l/m 0,0 km/h (0 Bft) SW 225 -4,5 C 0,7 C 0,0 km/h (0 Bft)
22.03.2019 03:12 25,2 C 0,7 C -1,6 C -2,4 C 30 % 68 % 78 % 1033,4 hPa 0,0 l/m 0,0 km/h (0 Bft) W 270 -4,5 C 0,7 C 0,0 km/h (0 Bft)
22.03.2019 03:10 25,4 C 0,7 C -1,6 C -2,4 C 30 % 68 % 78 % 1033,4 hPa 0,0 l/m 0,0 km/h (0 Bft) S-SO 157 -4,5 C 0,7 C 0,0 km/h (0 Bft)
22.03.2019 03:08 25,4 C 0,7 C -1,6 C -2,4 C 30 % 68 % 78 % 1033,4 hPa 0,0 l/m 0,0 km/h (0 Bft) SO 135 -4,5 C 0,7 C 0,0 km/h (0 Bft)
22.03.2019 03:06 25,4 C 0,7 C -1,6 C -2,4 C 30 % 68 % 78 % 1033,4 hPa 0,0 l/m 0,0 km/h (0 Bft) O-NO 67 -4,5 C 0,7 C 0,0 km/h (0 Bft)
22.03.2019 03:02 25,4 C 0,7 C -1,6 C -2,4 C 30 % 68 % 78 % 1033,4 hPa 0,0 l/m 0,0 km/h (0 Bft) S-SW 202 -4,5 C 0,7 C 0,0 km/h (0 Bft)
22.03.2019 03:00 25,4 C 0,7 C -1,6 C -2,4 C 30 % 68 % 78 % 1033,6 hPa 0,0 l/m 0,2 km/h (0 Bft) S 180 -4,5 C 0,7 C 0,0 km/h (0 Bft)
22.03.2019 02:58 25,4 C 0,7 C -1,6 C -2,4 C 30 % 68 % 78 % 1033,6 hPa 0,0 l/m 0,2 km/h (0 Bft) S 180 -4,5 C 0,7 C 0,0 km/h (0 Bft)
22.03.2019 02:56 25,4 C 0,7 C -1,6 C -2,4 C 30 % 68 % 78 % 1033,6 hPa 0,0 l/m 0,2 km/h (0 Bft) O-NO 67 -4,5 C 0,7 C 0,0 km/h (0 Bft)
22.03.2019 02:54 25,4 C 0,7 C -1,6 C -2,4 C 30 % 68 % 78 % 1033,6 hPa 0,0 l/m 0,2 km/h (0 Bft) S-SO 157 -4,5 C 0,7 C 0,0 km/h (0 Bft)
22.03.2019 02:52 25,4 C 0,7 C -1,6 C -2,4 C 30 % 68 % 78 % 1033,6 hPa 0,0 l/m 0,2 km/h (0 Bft) S-SO 157 -4,5 C 0,7 C 2,4 km/h (1 Bft)
22.03.2019 02:50 25,4 C 0,7 C -1,6 C -2,4 C 30 % 68 % 78 % 1033,6 hPa 0,0 l/m 0,2 km/h (0 Bft) N-NW 337 -4,5 C 0,7 C 2,4 km/h (1 Bft)
22.03.2019 02:48 25,4 C 0,7 C -1,6 C -2,4 C 30 % 68 % 78 % 1033,6 hPa 0,0 l/m 0,0 km/h (0 Bft) O 90 -4,5 C 0,7 C 0,0 km/h (0 Bft)
22.03.2019 02:46 25,4 C 0,7 C -1,6 C -2,4 C 30 % 68 % 78 % 1033,6 hPa 0,0 l/m 0,0 km/h (0 Bft) O-NO 67 -4,5 C 0,7 C 0,0 km/h (0 Bft)
22.03.2019 02:44 25,4 C 0,7 C -1,6 C -2,4 C 30 % 68 % 78 % 1033,6 hPa 0,0 l/m 0,0 km/h (0 Bft) O-NO 67 -4,5 C 0,7 C 0,0 km/h (0 Bft)
22.03.2019 02:42 25,4 C 0,7 C -1,6 C -2,4 C 30 % 68 % 78 % 1033,6 hPa 0,0 l/m 0,0 km/h (0 Bft) SO 135 -4,5 C 0,7 C 0,0 km/h (0 Bft)
22.03.2019 02:40 25,5 C 0,7 C -1,6 C -2,4 C 30 % 68 % 78 % 1033,6 hPa 0,0 l/m 0,0 km/h (0 Bft) S-SW 202 -4,5 C 0,7 C 0,0 km/h (0 Bft)
22.03.2019 02:38 25,5 C 0,7 C -1,6 C -2,4 C 30 % 68 % 78 % 1033,6 hPa 0,0 l/m 0,0 km/h (0 Bft) S-SW 202 -4,5 C 0,7 C 0,0 km/h (0 Bft)
22.03.2019 02:36 25,5 C 0,7 C -1,6 C -2,4 C 30 % 68 % 78 % 1033,6 hPa 0,0 l/m 0,0 km/h (0 Bft) SO 135 -4,5 C 0,7 C 0,0 km/h (0 Bft)
22.03.2019 02:34 25,5 C 0,7 C -1,6 C -2,4 C 30 % 68 % 78 % 1033,6 hPa 0,0 l/m 0,2 km/h (0 Bft) O 90 -4,5 C 0,7 C 0,0 km/h (0 Bft)
22.03.2019 02:32 25,5 C 0,7 C -1,6 C -2,4 C 30 % 68 % 78 % 1033,6 hPa 0,0 l/m 0,3 km/h (0 Bft) O-SO 112 -4,5 C 0,7 C 0,0 km/h (0 Bft)
22.03.2019 02:30 25,5 C 0,7 C -1,6 C -2,4 C 30 % 68 % 78 % 1033,6 hPa 0,0 l/m 0,5 km/h (0 Bft) O-SO 112 -4,5 C 0,7 C 0,0 km/h (0 Bft)
22.03.2019 02:28 25,5 C 0,7 C -1,6 C -2,4 C 30 % 68 % 78 % 1033,6 hPa 0,0 l/m 0,6 km/h (0 Bft) O-NO 67 -4,5 C 0,7 C 0,0 km/h (0 Bft)
22.03.2019 02:26 25,6 C 0,7 C -1,6 C -2,4 C 30 % 68 % 78 % 1033,6 hPa 0,0 l/m 1,4 km/h (1 Bft) NO 45 -4,5 C 0,7 C 0,0 km/h (0 Bft)
22.03.2019 02:24 25,6 C 0,7 C -1,6 C -2,4 C 30 % 68 % 78 % 1033,6 hPa 0,0 l/m 2,1 km/h (1 Bft) NO 45 -4,5 C 0,7 C 3,1 km/h (1 Bft)
22.03.2019 02:22 25,6 C 0,7 C -1,6 C -2,4 C 30 % 68 % 78 % 1033,6 hPa 0,0 l/m 2,1 km/h (1 Bft) NO 45 -4,5 C 0,7 C 3,1 km/h (1 Bft)
22.03.2019 02:20 25,6 C 0,7 C -1,6 C -2,4 C 30 % 68 % 78 % 1033,8 hPa 0,0 l/m 3,2 km/h (1 Bft) NO 45 -4,5 C 0,7 C 0,0 km/h (0 Bft)
22.03.2019 02:18 25,6 C 0,7 C -1,6 C -2,4 C 30 % 68 % 78 % 1033,8 hPa 0,0 l/m 4,0 km/h (1 Bft) O 90 -4,5 C 0,7 C 3,4 km/h (1 Bft)
22.03.2019 02:16 25,6 C 0,7 C -1,6 C -2,4 C 30 % 68 % 78 % 1033,8 hPa 0,0 l/m 4,0 km/h (1 Bft) O 90 -4,5 C 0,7 C 6,5 km/h (2 Bft)
22.03.2019 02:14 25,6 C 0,7 C -1,6 C -2,4 C 30 % 68 % 78 % 1033,8 hPa 0,0 l/m 4,8 km/h (1 Bft) S-SO 157 -4,5 C 0,7 C 6,5 km/h (2 Bft)
22.03.2019 02:12 25,6 C 0,7 C -1,6 C -2,4 C 30 % 68 % 78 % 1033,8 hPa 0,0 l/m 5,3 km/h (1 Bft) S-SO 157 -4,5 C 0,7 C 5,8 km/h (2 Bft)
22.03.2019 02:10 25,6 C 0,7 C -1,6 C -2,4 C 30 % 68 % 78 % 1033,8 hPa 0,0 l/m 5,3 km/h (1 Bft) S-SO 157 -4,5 C 0,7 C 7,7 km/h (2 Bft)
22.03.2019 02:08 25,6 C 0,7 C -1,6 C -2,4 C 30 % 68 % 78 % 1033,8 hPa 0,0 l/m 5,0 km/h (1 Bft) S 180 -4,5 C 0,7 C 9,9 km/h (2 Bft)
22.03.2019 02:06 25,6 C 0,7 C -1,6 C -2,4 C 30 % 68 % 78 % 1033,8 hPa 0,0 l/m 5,0 km/h (1 Bft) S 180 -4,5 C 0,7 C 9,9 km/h (2 Bft)
22.03.2019 02:02 25,6 C 0,7 C -1,6 C -2,4 C 30 % 68 % 78 % 1033,8 hPa 0,0 l/m 2,7 km/h (1 Bft) SW 225 -4,5 C 0,7 C 6,8 km/h (2 Bft)
22.03.2019 02:00 25,6 C 0,7 C -1,6 C -2,4 C 30 % 68 % 78 % 1033,9 hPa 0,0 l/m 1,9 km/h (1 Bft) SW 225 -4,5 C 0,7 C 6,5 km/h (2 Bft)
22.03.2019 01:58 25,6 C 0,7 C -1,6 C -2,4 C 30 % 68 % 78 % 1033,9 hPa 0,0 l/m 1,4 km/h (1 Bft) S-SW 202 -4,5 C 0,7 C 4,8 km/h (1 Bft)
22.03.2019 01:56 25,7 C 0,7 C -1,6 C -2,4 C 30 % 68 % 78 % 1033,9 hPa 0,0 l/m 1,3 km/h (1 Bft) S-SW 202 -4,5 C 0,7 C 6,3 km/h (2 Bft)
22.03.2019 01:54 25,7 C 0,7 C -1,6 C -2,4 C 30 % 68 % 78 % 1033,9 hPa 0,0 l/m 1,3 km/h (1 Bft) S-SW 202 -4,5 C 0,7 C 6,3 km/h (2 Bft)
22.03.2019 01:52 25,7 C 0,7 C -1,6 C -2,4 C 30 % 68 % 78 % 1033,9 hPa 0,0 l/m 0,8 km/h (0 Bft) S-SW 202 -4,5 C 0,7 C 2,7 km/h (1 Bft)
22.03.2019 01:50 25,7 C 0,7 C -1,6 C -2,4 C 30 % 68 % 78 % 1033,9 hPa 0,0 l/m 1,0 km/h (0 Bft) S-SO 157 -4,5 C 0,7 C 0,0 km/h (0 Bft)
22.03.2019 01:48 25,7 C 0,7 C -1,6 C -2,4 C 30 % 68 % 78 % 1033,9 hPa 0,0 l/m 1,0 km/h (0 Bft) S-SO 157 -4,5 C 0,7 C 3,9 km/h (1 Bft)
22.03.2019 01:46 25,7 C 0,7 C -1,6 C -2,4 C 30 % 68 % 78 % 1033,9 hPa 0,0 l/m 1,0 km/h (0 Bft) O-NO 67 -4,5 C 0,7 C 4,3 km/h (1 Bft)
22.03.2019 01:44 25,7 C 0,7 C -1,6 C -2,4 C 30 % 68 % 78 % 1033,9 hPa 0,0 l/m 1,1 km/h (1 Bft) O-NO 67 -4,5 C 0,7 C 0,0 km/h (0 Bft)
22.03.2019 01:42 25,8 C 0,7 C -1,6 C -2,4 C 30 % 68 % 78 % 1033,9 hPa 0,0 l/m 1,6 km/h (1 Bft) O 90 -4,5 C 0,7 C 0,0 km/h (0 Bft)
22.03.2019 01:40 25,8 C 0,7 C -1,6 C -2,4 C 30 % 68 % 78 % 1034,0 hPa 0,0 l/m 2,1 km/h (1 Bft) S 180 -4,5 C 0,7 C 3,1 km/h (1 Bft)
22.03.2019 01:38 25,8 C 0,7 C -1,6 C -2,4 C 29 % 68 % 78 % 1034,0 hPa 0,0 l/m 2,1 km/h (1 Bft) S-SW 202 -4,5 C 0,7 C 0,0 km/h (0 Bft)
22.03.2019 01:36 25,8 C 0,7 C -1,6 C -2,4 C 29 % 68 % 78 % 1034,0 hPa 0,0 l/m 2,1 km/h (1 Bft) S-SW 202 -4,5 C 0,7 C 5,1 km/h (1 Bft)
22.03.2019 01:34 25,8 C 0,7 C -1,6 C -2,4 C 29 % 68 % 78 % 1034,0 hPa 0,0 l/m 2,1 km/h (1 Bft) S-SW 202 -4,5 C 0,7 C 4,6 km/h (1 Bft)
22.03.2019 01:32 25,8 C 0,7 C -1,6 C -2,4 C 29 % 68 % 78 % 1034,0 hPa 0,0 l/m 1,6 km/h (1 Bft) S-SW 202 -4,5 C 0,7 C 3,6 km/h (1 Bft)
22.03.2019 01:30 25,8 C 0,7 C -1,6 C -2,4 C 29 % 68 % 78 % 1034,0 hPa 0,0 l/m 1,0 km/h (0 Bft) S-SW 202 -4,5 C 0,7 C 6,3 km/h (2 Bft)
22.03.2019 01:28 25,9 C 0,7 C -1,6 C -2,4 C 29 % 68 % 78 % 1034,0 hPa 0,0 l/m 0,8 km/h (0 Bft) S-SW 202 -4,5 C 0,7 C 2,9 km/h (1 Bft)
22.03.2019 01:26 25,9 C 0,7 C -1,6 C -2,4 C 29 % 68 % 78 % 1034,0 hPa 0,0 l/m 0,3 km/h (0 Bft) S-SW 202 -4,5 C 0,7 C 3,4 km/h (1 Bft)
22.03.2019 01:24 25,9 C 0,7 C -1,6 C -2,4 C 29 % 68 % 78 % 1034,0 hPa 0,0 l/m 0,0 km/h (0 Bft) SW 225 -4,5 C 0,7 C 0,0 km/h (0 Bft)
22.03.2019 01:22 25,9 C 0,7 C -1,6 C -2,4 C 29 % 68 % 78 % 1034,0 hPa 0,0 l/m 0,0 km/h (0 Bft) S 180 -4,5 C 0,7 C 0,0 km/h (0 Bft)
22.03.2019 01:20 25,9 C 0,7 C -1,6 C -2,4 C 29 % 68 % 78 % 1034,1 hPa 0,0 l/m 0,0 km/h (0 Bft) S-SW 202 -4,5 C 0,7 C 0,0 km/h (0 Bft)
22.03.2019 01:18 25,9 C 0,7 C -1,6 C -2,4 C 29 % 68 % 78 % 1034,1 hPa 0,0 l/m 0,0 km/h (0 Bft) S-SW 202 -4,5 C 0,7 C 0,0 km/h (0 Bft)
22.03.2019 01:16 25,9 C 0,7 C -1,6 C -2,4 C 29 % 68 % 78 % 1034,1 hPa 0,0 l/m 0,0 km/h (0 Bft) SW 225 -4,5 C 0,7 C 0,0 km/h (0 Bft)
22.03.2019 01:14 25,9 C 0,7 C -1,6 C -2,4 C 29 % 68 % 78 % 1034,1 hPa 0,0 l/m 0,2 km/h (0 Bft) S-SO 157 -4,5 C 0,7 C 0,0 km/h (0 Bft)
22.03.2019 01:12 25,9 C 0,7 C -1,6 C -2,4 C 29 % 68 % 78 % 1034,1 hPa 0,0 l/m 0,2 km/h (0 Bft) S 180 -4,5 C 0,7 C 0,0 km/h (0 Bft)
22.03.2019 01:10 25,9 C 0,7 C -1,6 C -2,4 C 29 % 68 % 78 % 1034,1 hPa 0,0 l/m 0,2 km/h (0 Bft) W-SW 247 -4,5 C 0,7 C 0,0 km/h (0 Bft)
22.03.2019 01:08 25,9 C 0,7 C -1,6 C -2,4 C 29 % 68 % 78 % 1034,1 hPa 0,0 l/m 0,2 km/h (0 Bft) NO 45 -4,5 C 0,7 C 0,0 km/h (0 Bft)
22.03.2019 01:06 25,9 C 0,7 C -1,6 C -2,4 C 29 % 68 % 78 % 1034,1 hPa 0,0 l/m 0,2 km/h (0 Bft) NO 45 -4,5 C 0,7 C 0,0 km/h (0 Bft)
22.03.2019 01:02 25,9 C 0,7 C -1,6 C -2,4 C 29 % 68 % 78 % 1034,1 hPa 0,0 l/m 0,0 km/h (0 Bft) SW 225 -4,5 C 0,7 C 0,0 km/h (0 Bft)
22.03.2019 01:00 25,9 C 0,7 C -1,6 C -2,4 C 29 % 68 % 78 % 1034,2 hPa 0,0 l/m 0,0 km/h (0 Bft) W-SW 247 -4,5 C 0,7 C 0,0 km/h (0 Bft)
22.03.2019 00:58 25,9 C 0,7 C -1,6 C -2,4 C 29 % 68 % 78 % 1034,2 hPa 0,0 l/m 0,2 km/h (0 Bft) N-NW 337 -4,5 C 0,7 C 0,0 km/h (0 Bft)
22.03.2019 00:56 25,9 C 0,7 C -1,6 C -2,4 C 29 % 68 % 78 % 1034,2 hPa 0,0 l/m 0,2 km/h (0 Bft) SW 225 -4,5 C 0,7 C 0,0 km/h (0 Bft)
22.03.2019 00:54 25,9 C 0,7 C -1,6 C -2,4 C 30 % 68 % 78 % 1034,2 hPa 0,0 l/m 0,2 km/h (0 Bft) W-SW 247 -4,5 C 0,7 C 0,0 km/h (0 Bft)
22.03.2019 00:52 25,9 C 0,7 C -1,6 C -2,4 C 30 % 68 % 78 % 1034,2 hPa 0,0 l/m 0,2 km/h (0 Bft) W-SW 247 -4,5 C 0,7 C 0,0 km/h (0 Bft)
22.03.2019 00:50 25,9 C 0,7 C -1,6 C -2,4 C 30 % 68 % 78 % 1034,2 hPa 0,0 l/m 0,8 km/h (0 Bft) S-SW 202 -4,5 C 0,7 C 0,0 km/h (0 Bft)
22.03.2019 00:48 25,9 C 0,7 C -1,6 C -2,4 C 30 % 68 % 78 % 1034,2 hPa 0,0 l/m 1,1 km/h (1 Bft) O-NO 67 -4,5 C 0,7 C 2,9 km/h (1 Bft)
22.03.2019 00:46 25,9 C 0,7 C -1,6 C -2,4 C 30 % 68 % 78 % 1034,2 hPa 0,0 l/m 1,1 km/h (1 Bft) O-NO 67 -4,5 C 0,7 C 2,9 km/h (1 Bft)
22.03.2019 00:44 25,9 C 0,7 C -1,6 C -2,4 C 30 % 68 % 78 % 1034,2 hPa 0,0 l/m 1,1 km/h (1 Bft) NO 45 -4,5 C 0,7 C 0,0 km/h (0 Bft)
22.03.2019 00:42 25,9 C 0,7 C -1,6 C -2,4 C 30 % 68 % 78 % 1034,2 hPa 0,0 l/m 1,1 km/h (1 Bft) NO 45 -4,5 C 0,7 C 3,6 km/h (1 Bft)
22.03.2019 00:40 25,9 C 0,7 C -1,6 C -2,4 C 30 % 68 % 78 % 1034,0 hPa 0,0 l/m 0,8 km/h (0 Bft) S 180 -4,5 C 0,7 C 4,1 km/h (1 Bft)
22.03.2019 00:38 25,9 C 0,7 C -1,6 C -2,4 C 30 % 68 % 78 % 1034,0 hPa 0,0 l/m 0,5 km/h (0 Bft) S-SW 202 -4,5 C 0,7 C 4,8 km/h (1 Bft)
22.03.2019 00:36 25,9 C 0,7 C -1,6 C -2,4 C 30 % 68 % 78 % 1034,0 hPa 0,0 l/m 0,2 km/h (0 Bft) O-SO 112 -4,5 C 0,7 C 0,0 km/h (0 Bft)
22.03.2019 00:34 25,9 C 0,7 C -1,6 C -2,4 C 30 % 68 % 78 % 1034,0 hPa 0,0 l/m 0,3 km/h (0 Bft) S-SO 157 -4,5 C 0,7 C 0,0 km/h (0 Bft)
22.03.2019 00:32 25,9 C 0,7 C -1,6 C -2,4 C 30 % 68 % 78 % 1034,0 hPa 0,0 l/m 0,3 km/h (0 Bft) S-SO 157 -4,5 C 0,7 C 0,0 km/h (0 Bft)
22.03.2019 00:30 25,8 C 0,7 C -1,6 C -2,4 C 30 % 68 % 78 % 1034,0 hPa 0,0 l/m 0,5 km/h (0 Bft) O-NO 67 -4,5 C 0,7 C 3,9 km/h (1 Bft)
22.03.2019 00:28 25,8 C 0,7 C -1,6 C -2,4 C 30 % 68 % 78 % 1034,0 hPa 0,0 l/m 0,5 km/h (0 Bft) O-NO 67 -4,5 C 0,7 C 3,1 km/h (1 Bft)
22.03.2019 00:26 25,7 C 0,7 C -1,6 C -2,4 C 30 % 68 % 78 % 1034,0 hPa 0,0 l/m 0,5 km/h (0 Bft) S-SW 202 -4,5 C 0,7 C 0,0 km/h (0 Bft)
22.03.2019 00:24 25,7 C 0,7 C -1,6 C -2,4 C 30 % 68 % 78 % 1034,0 hPa 0,0 l/m 0,5 km/h (0 Bft) S-SW 202 -4,5 C 0,7 C 2,7 km/h (1 Bft)
22.03.2019 00:22 25,6 C 0,7 C -1,6 C -2,4 C 30 % 68 % 78 % 1034,0 hPa 0,0 l/m 0,3 km/h (0 Bft) S 180 -4,5 C 0,7 C 0,0 km/h (0 Bft)
22.03.2019 00:20 25,6 C 0,7 C -1,6 C -2,4 C 30 % 68 % 78 % 1033,6 hPa 0,0 l/m 0,3 km/h (0 Bft) S 180 -4,5 C 0,7 C 3,4 km/h (1 Bft)
22.03.2019 00:18 25,6 C 0,7 C -1,6 C -2,4 C 30 % 68 % 78 % 1033,6 hPa 0,0 l/m 0,2 km/h (0 Bft) NO 45 -4,5 C 0,7 C 0,0 km/h (0 Bft)
22.03.2019 00:16 25,5 C 0,7 C -1,6 C -2,4 C 30 % 68 % 78 % 1033,6 hPa 0,0 l/m 0,0 km/h (0 Bft) SW 225 -4,5 C 0,7 C 0,0 km/h (0 Bft)
22.03.2019 00:14 25,4 C 0,7 C -1,6 C -2,4 C 30 % 68 % 78 % 1033,6 hPa 0,0 l/m 0,3 km/h (0 Bft) S 180 -4,5 C 0,7 C 0,0 km/h (0 Bft)
22.03.2019 00:12 25,4 C 0,7 C -1,6 C -2,4 C 30 % 68 % 78 % 1033,6 hPa 0,0 l/m 0,3 km/h (0 Bft) S-SW 202 -4,5 C 0,7 C 0,0 km/h (0 Bft)
22.03.2019 00:10 25,2 C 0,7 C -1,6 C -2,4 C 30 % 68 % 78 % 1033,6 hPa 0,0 l/m 0,5 km/h (0 Bft) S-SW 202 -4,5 C 0,7 C 0,0 km/h (0 Bft)
22.03.2019 00:08 25,3 C 0,7 C -1,6 C -2,4 C 30 % 68 % 78 % 1033,6 hPa 0,0 l/m 0,5 km/h (0 Bft) S-SW 202 -4,5 C 0,7 C 0,0 km/h (0 Bft)
22.03.2019 00:06 25,2 C 0,7 C -1,6 C -2,4 C 30 % 68 % 78 % 1033,6 hPa 0,0 l/m 0,5 km/h (0 Bft) S-SW 202 -4,5 C 0,7 C 0,0 km/h (0 Bft)
22.03.2019 00:05 25,2 C 0,7 C -1,6 C -2,4 C 31 % 68 % 78 % 1033,6 hPa 0,0 l/m 0,5 km/h (0 Bft) S-SW 202 -4,5 C 0,7 C 0,0 km/h (0 Bft)
22.03.2019 00:02 25,1 C 0,7 C -1,6 C -2,4 C 31 % 68 % 78 % 1033,6 hPa 0,0 l/m 0,2 km/h (0 Bft) W-SW 247 -4,5 C 0,7 C 0,0 km/h (0 Bft)
22.03.2019 00:00 25,0 C 0,7 C -1,6 C -2,4 C 31 % 68 % 78 % 1036,1 hPa 0,0 l/m 0,3 km/h (0 Bft) SW 225 -4,5 C 0,7 C 2,9 km/h (1 Bft)
_ Min-Zeit 05:56 00:00 00:00 06:56 00:56 09:30 09:28 05:02 - 00:16 - - 00:00 00:00 00:02
Minimum _ 24,4 C 0,7 C -1,6 C -2,8 C 29 % 54 % 63 % 1032,6 hPa - 0,0 km/h (0 Bft) - - -4,5 C 0,7 C 0,0 km/h (0 Bft)
_ Max-Zeit 00:32 09:30 09:28 09:28 00:00 06:58 08:08 00:00 00:00 02:10 - - 08:38 09:30 09:30
Maximum _ 25,9 C 12,7 C 17,5 C 11,5 C 31 % 74 % 87 % 1036,1 hPa 0,0 l/m 5,3 km/h
S-SO (1 Bft)
- - 3,8 C 12,7 C 17,6 km/h
S-SW (3 Bft)
Durchschnitt _ 25,1 C 2,6 C 0,9 C -1,1 C 30 % 67 % 79 % 1033,3 hPa #0,0 l/m 1,0 km/h (0 Bft) S-SW - -2,9 C 2,6 C 2,0 km/h (1 Bft)